• Processing (Info)

  • MPEC 2014-W149: 2014 WG365

    The following Minor Planet Electronic Circular may be linked-to from your own Web pages, but must not otherwise be redistributed electronically.

    A form allowing access to any MPEC is at the bottom of this page.


    Read MPEC 2014-W148 Read MPEC 2014-W150


    M.P.E.C. 2014-W149                               Issued 2014 Nov. 29, 14:32 UT
    
         The Minor Planet Electronic Circulars contain information on unusual
             minor planets and routine data on comets.  They are published
       on behalf of Commission 20 of the International Astronomical Union by the
              Minor Planet Center, Smithsonian Astrophysical Observatory,
                              Cambridge, MA 02138, U.S.A.
    
                 Prepared using the Tamkin Foundation Computer Network
    
                                  MPC@CFA.HARVARD.EDU
                URL https://www.minorplanetcenter.net/    ISSN 1523-6714
    
                                      2014 WG365
    
    Observations:
         K14Wa5G* C2014 11 25.37199 02 29 19.301-09 53 06.67         21.0 wLEW149F51
         K14Wa5G  C2014 11 25.38451 02 29 17.131-09 52 49.65         21.0 wLEW149F51
         K14Wa5G  C2014 11 25.39700 02 29 14.952-09 52 32.60         21.0 wLEW149F51
         K14Wa5G _C2014 11 26.23115502 26 56.921-09 33 21.67         19.2 RtEW149568
         K14Wa5G _C2014 11 26.23240902 26 56.709-09 33 19.99         19.1 RtEW149568
         K14Wa5G _C2014 11 26.23366202 26 56.500-09 33 18.32         19.3 RtEW149568
         K14Wa5G KC2014 11 27.09517 02 24 34.19 -09 12 47.6          21.3 VqEW149821
         K14Wa5G KC2014 11 27.09896 02 24 33.56 -09 12 42.2          20.8 VqEW149821
         K14Wa5G KC2014 11 27.10355 02 24 32.77 -09 12 35.7          20.9 VqEW149821
         K14Wa5G  C2014 11 28.10761402 21 50.84 -08 48 33.3          20.4 RtEW149H01
         K14Wa5G  C2014 11 28.11138102 21 50.21 -08 48 27.8          20.8 RtEW149H01
         K14Wa5G  C2014 11 28.12296202 21 48.30 -08 48 10.8          20.9 RtEW149H01
         K14Wa5G  C2014 11 28.13007602 21 47.13 -08 48 00.4          19.9 RtEW149H01
         K14Wa5G  C2014 11 29.18294102 18 59.70 -08 21 49.4          20.9 RtEW149H01
         K14Wa5G  C2014 11 29.18806602 18 58.86 -08 21 41.7          20.5 RtEW149H01
         K14Wa5G  C2014 11 29.19765802 18 57.30 -08 21 27.2          20.7 RtEW149H01
         K14Wa5G  C2014 11 29.20471102 18 56.16 -08 21 16.6          20.8 RtEW149H01
    
    Observer details:
    568 Mauna Kea.  Observers R. J. Wainscoat, A. Draginda.  Measurers M. Micheli,
        R. J. Wainscoat.  3.6-m Canada-France-Hawaii Telescope + CCD.
    821 Cordoba-Bosque Alegre.  Observers C. Colazo, M. E. Ferraro, L. Tapia
        Portillo.  1.54-m f/4.8 reflector + CCD.
    F51 Pan-STARRS 1, Haleakala.  Observers B. Gibson, T. Goggia, N. Primak,
        A. Schultz, M. Willman.  Measurers K. Chambers, S. Chastel, L. Denneau,
        H. Flewelling, M. Huber, E. Magnier, E. Schunova, R. Wainscoat, C. Waters,
        R. Weryk.  1.8-m Ritchey-Chretien + CCD.
    H01 Magdalena Ridge Observatory, Socorro.  Observer W. H. Ryan.  2.4-m f/8.9
        reflector + CCD.
    
    Orbital elements:
    2014 WG365                                          PHA, Earth MOID = 0.0139 AU
    Epoch 2014 Dec. 9.0 TT = JDT 2457000.5                  MPC
    M 270.24385              (2000.0)            P               Q
    n   0.66791355     Peri.  111.03581     -0.91566396     +0.01036512
    a   1.2961518      Node    71.39727     -0.22211856     -0.84621151
    e   0.3333068      Incl.   25.08496     +0.33499680     -0.53274633
    P   1.48           H   19.7           G   0.15           U   7
    Residuals in seconds of arc
    141125 F51  0.0   0.0     141127 821  0.1-  0.0     141128 H01  0.0   0.0
    141125 F51  0.1+  0.0     141127 821  0.0   0.0     141129 H01  0.1+  0.1+
    141125 F51  0.1-  0.0     141127 821  0.2-  0.1-    141129 H01  0.0   0.0
    141126 568  0.0   0.2+    141128 H01  0.1+  0.0     141129 H01  0.1-  0.0
    141126 568  0.0   0.1+    141128 H01  0.0   0.0     141129 H01  0.0   0.0
    141126 568  0.1+  0.1+    141128 H01  0.0   0.0
    
    Ephemeris:
    2014 WG365               a,e,i = 1.30, 0.33, 25                  q = 0.8641
    Date    TT    R. A. (2000) Decl.     Delta      r     Elong.  Phase     V
    2014 10 30    03 41 50.1 -14 57 16   0.6619  1.5791   144.4    21.5    20.8
    ...
    2014 11 14    03 02 24.7 -13 17 48   0.5950  1.5286   148.4    19.8    20.5
    ...
    2014 11 22    02 38 56.1 -11 05 05   0.5806  1.4988   144.5    22.5    20.5
    ...
    2014 11 28    02 22 07.7 -08 51 03   0.5797  1.4752   139.3    25.9    20.5
    2014 11 29    02 19 28.5 -08 26 16   0.5803  1.4712   138.3    26.5    20.6
    2014 11 30    02 16 52.4 -08 00 54   0.5811  1.4671   137.2    27.2    20.6
    ...
    2014 12 06    02 02 30.5 -05 17 51   0.5902  1.4420   130.8    31.1    20.7
    ...
    2014 12 14    01 47 09.9 -01 21 05   0.6116  1.4071   121.9    36.4    20.9
    ...
    2014 12 29    01 30 49.4 +06 21 31   0.6699  1.3369   106.4    44.9    21.2
    
    A. U. Tomatic                (C) Copyright 2014 MPC           M.P.E.C. 2014-W149
    

    Read MPEC 2014-W148 Read MPEC 2014-W150


    MPEC number:

    Enter an MPEC number in one of the following forms:

    • 1997-B01 (the full form)
    • J97B01 (the packed version of the full form)
    • B01 (the abbreviated form)